DLONG RJAA-RJFR

Flight info

Callsign DLONG
Flight time 1h 27m
Altitude 36000
Route REDEK Y60 TOKOM Y604 WASYU Y28 MARCO Y285 ASARI
Aircraft A320/M-SDE3FGHIRWY/LB1

Departure

Time 2026-04-21 17:26
Airport Narita International Airport (RJAA)

Arrival

Time 2026-04-21 18:53
Airport Kitakyushu Airport (RJFR)
Time Latitude Longitude Altitude Speed Heading
2026-04-21 16:48 35.77913 140.38607 144 ft 0 kts 239°
2026-04-21 17:05 35.77917 140.38617 143 ft 4 kts 237°
2026-04-21 17:05 35.77933 140.38643 143 ft 4 kts 221°
2026-04-21 17:05 35.77955 140.38659 143 ft 4 kts 178°
2026-04-21 17:06 35.77969 140.38655 143 ft 1 kts 149°
2026-04-21 17:06 35.77970 140.38654 143 ft 0 kts 149°
2026-04-21 17:09 35.77967 140.38656 143 ft 1 kts 149°
2026-04-21 17:09 35.77945 140.38672 143 ft 4 kts 149°
2026-04-21 17:10 35.77924 140.38688 143 ft 3 kts 149°
2026-04-21 17:10 35.77883 140.38718 143 ft 9 kts 149°
2026-04-21 17:10 35.77848 140.38743 143 ft 8 kts 149°
2026-04-21 17:10 35.77805 140.38775 143 ft 7 kts 149°
2026-04-21 17:11 35.77776 140.38825 143 ft 9 kts 96°
2026-04-21 17:11 35.77798 140.38893 143 ft 8 kts 60°
2026-04-21 17:11 35.77823 140.38948 143 ft 8 kts 60°
2026-04-21 17:11 35.77859 140.39024 143 ft 11 kts 59°
2026-04-21 17:12 35.77895 140.39097 143 ft 10 kts 59°
2026-04-21 17:12 35.77933 140.39176 143 ft 13 kts 59°
2026-04-21 17:12 35.77933 140.39272 143 ft 11 kts 112°
2026-04-21 17:12 35.77904 140.39350 144 ft 9 kts 116°
2026-04-21 17:13 35.77870 140.39433 144 ft 12 kts 117°
2026-04-21 17:13 35.77818 140.39503 144 ft 10 kts 148°
2026-04-21 17:13 35.77745 140.39556 144 ft 18 kts 149°
2026-04-21 17:13 35.77633 140.39637 144 ft 19 kts 149°
2026-04-21 17:14 35.77515 140.39723 144 ft 20 kts 149°
2026-04-21 17:14 35.77389 140.39813 144 ft 22 kts 149°
2026-04-21 17:14 35.77255 140.39909 144 ft 23 kts 149°
2026-04-21 17:14 35.77134 140.39995 144 ft 17 kts 161°
2026-04-21 17:15 35.77024 140.39971 144 ft 16 kts 204°
2026-04-21 17:15 35.76918 140.39913 144 ft 17 kts 204°
2026-04-21 17:15 35.76858 140.39852 144 ft 10 kts 251°
2026-04-21 17:15 35.76829 140.39789 144 ft 9 kts 212°
2026-04-21 17:16 35.76765 140.39749 144 ft 12 kts 220°
2026-04-21 17:16 35.76697 140.39675 144 ft 13 kts 220°
2026-04-21 17:16 35.76614 140.39624 144 ft 15 kts 206°
2026-04-21 17:16 35.76505 140.39561 144 ft 19 kts 204°
2026-04-21 17:17 35.76377 140.39492 144 ft 21 kts 203°
2026-04-21 17:17 35.76241 140.39418 144 ft 22 kts 204°
2026-04-21 17:17 35.76098 140.39338 144 ft 23 kts 204°
2026-04-21 17:17 35.75946 140.39255 144 ft 24 kts 204°
2026-04-21 17:18 35.75841 140.39190 143 ft 13 kts 220°
2026-04-21 17:18 35.75791 140.39101 143 ft 12 kts 239°
2026-04-21 17:18 35.75742 140.38998 144 ft 18 kts 239°
2026-04-21 17:18 35.75675 140.38858 144 ft 20 kts 239°
2026-04-21 17:19 35.75606 140.38712 144 ft 16 kts 244°
2026-04-21 17:19 35.75600 140.38574 144 ft 14 kts 272°
2026-04-21 17:19 35.75651 140.38505 144 ft 10 kts 329°
2026-04-21 17:19 35.75707 140.38465 144 ft 8 kts 329°
2026-04-21 17:20 35.75760 140.38427 144 ft 11 kts 329°
2026-04-21 17:20 35.75850 140.38362 144 ft 19 kts 329°
2026-04-21 17:20 35.75969 140.38276 144 ft 21 kts 329°
2026-04-21 17:20 35.76096 140.38183 144 ft 22 kts 329°
2026-04-21 17:21 35.76231 140.38087 144 ft 23 kts 330°
2026-04-21 17:21 35.76362 140.37993 144 ft 19 kts 329°
2026-04-21 17:21 35.76406 140.37911 143 ft 10 kts 251°
2026-04-21 17:21 35.76403 140.37835 143 ft 10 kts 307°
2026-04-21 17:22 35.76476 140.37782 144 ft 14 kts 330°
2026-04-21 17:22 35.76573 140.37712 144 ft 18 kts 329°
2026-04-21 17:22 35.76692 140.37626 144 ft 21 kts 329°
2026-04-21 17:22 35.76822 140.37531 144 ft 22 kts 329°
2026-04-21 17:23 35.76961 140.37432 143 ft 24 kts 330°
2026-04-21 17:23 35.77107 140.37328 143 ft 25 kts 330°
2026-04-21 17:23 35.77259 140.37217 143 ft 26 kts 329°
2026-04-21 17:23 35.77417 140.37104 143 ft 27 kts 330°
2026-04-21 17:24 35.77495 140.37031 143 ft 10 kts 294°
2026-04-21 17:24 35.77485 140.36961 144 ft 8 kts 241°
2026-04-21 17:24 35.77446 140.36880 144 ft 13 kts 232°
2026-04-21 17:24 35.77369 140.36881 143 ft 12 kts 150°
2026-04-21 17:25 35.77232 140.36980 142 ft 49 kts 149°
2026-04-21 17:25 35.76732 140.37343 145 ft 115 kts 149°
2026-04-21 17:25 35.75887 140.37951 147 ft 164 kts 150°
2026-04-21 17:25 35.74825 140.38710 479 ft 180 kts 150°
2026-04-21 17:26 35.73761 140.39487 1381 ft 177 kts 152°
2026-04-21 17:26 35.72702 140.40268 2091 ft 183 kts 152°
2026-04-21 17:26 35.71539 140.41127 2461 ft 209 kts 152°
2026-04-21 17:26 35.70210 140.42094 2983 ft 233 kts 152°
2026-04-21 17:27 35.68748 140.43149 3588 ft 251 kts 151°
2026-04-21 17:27 35.67222 140.44235 4488 ft 257 kts 152°
2026-04-21 17:27 35.65650 140.45351 5341 ft 264 kts 153°
2026-04-21 17:27 35.64046 140.46495 6173 ft 269 kts 153°
2026-04-21 17:28 35.62413 140.47662 6992 ft 274 kts 153°
2026-04-21 17:28 35.60753 140.48849 7783 ft 278 kts 153°
2026-04-21 17:28 35.59068 140.50061 8591 ft 283 kts 153°
2026-04-21 17:28 35.57358 140.51293 9396 ft 287 kts 153°
2026-04-21 17:29 35.55620 140.52539 10150 ft 291 kts 153°
2026-04-21 17:29 35.53813 140.53831 10474 ft 312 kts 153°
2026-04-21 17:29 35.51868 140.55217 10651 ft 335 kts 153°
2026-04-21 17:29 35.49780 140.56706 10817 ft 357 kts 153°
2026-04-21 17:30 35.47515 140.58015 11283 ft 362 kts 167°
2026-04-21 17:30 35.45035 140.58382 11898 ft 360 kts 187°
2026-04-21 17:30 35.42615 140.57703 12532 ft 357 kts 206°
2026-04-21 17:30 35.40541 140.56080 13179 ft 355 kts 225°
2026-04-21 17:31 35.39020 140.53717 13842 ft 354 kts 241°
2026-04-21 17:31 35.37771 140.51107 14447 ft 356 kts 242°
2026-04-21 17:31 35.36682 140.48383 15052 ft 357 kts 251°
2026-04-21 17:31 35.36093 140.45437 15669 ft 357 kts 263°
2026-04-21 17:32 35.35995 140.43425 16082 ft 358 kts 271°
2026-04-21 17:32 35.36522 140.39392 16929 ft 361 kts 284°
2026-04-21 17:32 35.37213 140.36424 17578 ft 363 kts 284°
2026-04-21 17:32 35.37889 140.33487 18236 ft 364 kts 284°
2026-04-21 17:33 35.38571 140.30501 18815 ft 365 kts 284°
2026-04-21 17:33 35.39253 140.27502 19350 ft 366 kts 284°
2026-04-21 17:33 35.39935 140.24490 19886 ft 367 kts 283°
2026-04-21 17:33 35.40616 140.21478 20410 ft 368 kts 283°
2026-04-21 17:34 35.41303 140.18447 20912 ft 370 kts 284°
2026-04-21 17:34 35.41995 140.15405 21421 ft 371 kts 284°
2026-04-21 17:34 35.42689 140.12353 21914 ft 372 kts 284°
2026-04-21 17:34 35.43384 140.09285 22387 ft 374 kts 284°
2026-04-21 17:35 35.44078 140.06213 22845 ft 375 kts 284°
2026-04-21 17:35 35.44775 140.03125 23290 ft 376 kts 284°
2026-04-21 17:35 35.45471 140.00024 23704 ft 378 kts 283°
2026-04-21 17:35 35.46172 139.96910 24062 ft 379 kts 283°
2026-04-21 17:36 35.46865 139.93785 24412 ft 380 kts 281°
2026-04-21 17:36 35.47211 139.90581 24743 ft 380 kts 271°
2026-04-21 17:36 35.47021 139.87339 25069 ft 383 kts 262°
2026-04-21 17:36 35.46299 139.84188 25402 ft 387 kts 252°
2026-04-21 17:37 35.45319 139.81107 25713 ft 388 kts 252°
2026-04-21 17:37 35.44340 139.78019 26026 ft 389 kts 252°
2026-04-21 17:37 35.43693 139.75970 26218 ft 390 kts 252°
2026-04-21 17:37 35.42384 139.71816 26632 ft 391 kts 252°
2026-04-21 17:38 35.41404 139.68699 26919 ft 392 kts 252°
2026-04-21 17:38 35.40420 139.65576 27200 ft 393 kts 252°
2026-04-21 17:38 35.39432 139.62449 27466 ft 394 kts 252°
2026-04-21 17:38 35.38437 139.59311 27728 ft 395 kts 252°
2026-04-21 17:39 35.37439 139.56172 27989 ft 396 kts 252°
2026-04-21 17:39 35.36432 139.53022 28246 ft 397 kts 252°
2026-04-21 17:39 35.35425 139.49874 28537 ft 396 kts 253°
2026-04-21 17:39 35.34659 139.46658 28878 ft 391 kts 261°
2026-04-21 17:40 35.34366 139.43369 29243 ft 388 kts 268°
2026-04-21 17:40 35.34225 139.40078 29602 ft 386 kts 267°
2026-04-21 17:40 35.34078 139.36809 29968 ft 384 kts 267°
2026-04-21 17:40 35.33925 139.33557 30317 ft 382 kts 267°
2026-04-21 17:41 35.33773 139.30322 30617 ft 380 kts 267°
2026-04-21 17:41 35.33619 139.27098 30894 ft 379 kts 267°
2026-04-21 17:41 35.33464 139.23885 31186 ft 378 kts 267°
2026-04-21 17:41 35.33311 139.20679 31476 ft 376 kts 267°
2026-04-21 17:42 35.33160 139.17484 31752 ft 375 kts 268°
2026-04-21 17:42 35.33009 139.14297 32039 ft 374 kts 268°
2026-04-21 17:42 35.32856 139.11120 32331 ft 373 kts 268°
2026-04-21 17:42 35.32702 139.07955 32609 ft 372 kts 268°
2026-04-21 17:43 35.32546 139.04794 32873 ft 371 kts 268°
2026-04-21 17:43 35.32391 139.01640 33102 ft 371 kts 268°
2026-04-21 17:43 35.32234 138.98487 33374 ft 371 kts 268°
2026-04-21 17:43 35.32077 138.95341 33666 ft 369 kts 268°
2026-04-21 17:44 35.31921 138.92205 33941 ft 369 kts 268°
2026-04-21 17:44 35.31765 138.89076 34191 ft 368 kts 268°
2026-04-21 17:44 35.31609 138.85954 34417 ft 367 kts 268°
2026-04-21 17:44 35.31452 138.82827 34648 ft 367 kts 268°
2026-04-21 17:45 35.31296 138.79717 34864 ft 366 kts 268°
2026-04-21 17:45 35.31136 138.76600 35071 ft 366 kts 268°
2026-04-21 17:45 35.30976 138.73496 35278 ft 365 kts 268°
2026-04-21 17:45 35.30816 138.70400 35495 ft 364 kts 268°
2026-04-21 17:46 35.30654 138.67303 35708 ft 364 kts 268°
2026-04-21 17:46 35.30492 138.64215 35925 ft 363 kts 268°
2026-04-21 17:46 35.30329 138.61132 36077 ft 363 kts 268°
2026-04-21 17:46 35.30165 138.58036 36112 ft 365 kts 268°
2026-04-21 17:47 35.29836 138.51825 36112 ft 366 kts 267°
2026-04-21 17:47 35.29512 138.45603 36109 ft 367 kts 268°
2026-04-21 17:48 35.29177 138.39364 36110 ft 369 kts 268°
2026-04-21 17:48 35.28833 138.33096 36104 ft 368 kts 268°
2026-04-21 17:49 35.28484 138.26839 36129 ft 369 kts 268°
2026-04-21 17:49 35.28130 138.20614 36110 ft 368 kts 268°
2026-04-21 17:50 35.27780 138.14366 36111 ft 368 kts 267°
2026-04-21 17:50 35.27426 138.08114 36123 ft 368 kts 267°
2026-04-21 17:51 35.27065 138.01869 36122 ft 368 kts 267°
2026-04-21 17:51 35.26766 137.96631 36135 ft 369 kts 267°
2026-04-21 17:52 35.26405 137.90367 36134 ft 369 kts 267°
2026-04-21 17:52 35.26037 137.84143 36149 ft 369 kts 267°
2026-04-21 17:53 35.25660 137.77847 36149 ft 368 kts 266°
2026-04-21 17:53 35.25211 137.71645 36148 ft 369 kts 266°
2026-04-21 17:54 35.24719 137.65404 36150 ft 369 kts 266°
2026-04-21 17:54 35.24033 137.59189 36159 ft 371 kts 257°
2026-04-21 17:55 35.22353 137.53195 36146 ft 373 kts 255°
2026-04-21 17:55 35.20641 137.47206 36151 ft 373 kts 255°
2026-04-21 17:56 35.18929 137.41226 36143 ft 373 kts 255°
2026-04-21 17:56 35.17219 137.35246 36139 ft 373 kts 255°
2026-04-21 17:57 35.15505 137.29265 36118 ft 373 kts 255°
2026-04-21 17:57 35.13788 137.23323 36127 ft 373 kts 254°
2026-04-21 17:58 35.12060 137.17346 36121 ft 373 kts 254°
2026-04-21 17:58 35.10331 137.11365 36117 ft 374 kts 254°
2026-04-21 17:59 35.08594 137.05384 36101 ft 374 kts 254°
2026-04-21 17:59 35.06854 136.99401 36088 ft 374 kts 254°
2026-04-21 18:00 35.05110 136.93412 36088 ft 375 kts 254°
2026-04-21 18:00 35.03363 136.87427 36082 ft 375 kts 254°
2026-04-21 18:01 35.01613 136.81431 36074 ft 375 kts 253°
2026-04-21 18:01 34.99953 136.75411 36072 ft 374 kts 256°
2026-04-21 18:02 34.98480 136.69328 36076 ft 374 kts 257°
2026-04-21 18:02 34.97026 136.63241 36089 ft 374 kts 256°
2026-04-21 18:03 34.95542 136.57195 36098 ft 375 kts 256°
2026-04-21 18:03 34.94025 136.51111 36106 ft 375 kts 256°
2026-04-21 18:04 34.92500 136.45031 36115 ft 375 kts 256°
2026-04-21 18:04 34.90973 136.38949 36127 ft 375 kts 256°
2026-04-21 18:05 34.89442 136.32866 36129 ft 376 kts 256°
2026-04-21 18:05 34.87911 136.26777 36130 ft 376 kts 256°
2026-04-21 18:06 34.86384 136.20696 36126 ft 375 kts 256°
2026-04-21 18:06 34.84855 136.14616 36125 ft 375 kts 256°
2026-04-21 18:07 34.83311 136.08544 36118 ft 375 kts 255°
2026-04-21 18:07 34.81761 136.02472 36114 ft 376 kts 255°
2026-04-21 18:08 34.80214 135.96393 36114 ft 376 kts 255°
2026-04-21 18:08 34.78666 135.90305 36112 ft 377 kts 255°
2026-04-21 18:09 34.77107 135.84215 36113 ft 377 kts 255°
2026-04-21 18:09 34.75544 135.78123 36111 ft 377 kts 255°
2026-04-21 18:10 34.74026 135.72205 36112 ft 378 kts 255°
2026-04-21 18:10 34.72456 135.66105 36108 ft 378 kts 255°
2026-04-21 18:11 34.70888 135.60048 36107 ft 378 kts 255°
2026-04-21 18:11 34.69307 135.53949 36108 ft 379 kts 255°
2026-04-21 18:12 34.67722 135.47849 36106 ft 379 kts 255°
2026-04-21 18:12 34.66133 135.41743 36108 ft 379 kts 255°
2026-04-21 18:13 34.64872 135.35542 36111 ft 378 kts 259°
2026-04-21 18:13 34.63760 135.29295 36109 ft 379 kts 259°
2026-04-21 18:14 34.62076 135.19916 36109 ft 379 kts 259°
2026-04-21 18:15 34.60948 135.13664 36109 ft 379 kts 259°
2026-04-21 18:15 34.59820 135.07410 36103 ft 379 kts 259°
2026-04-21 18:16 34.58681 135.01157 36099 ft 380 kts 259°
2026-04-21 18:16 34.57541 134.94897 36098 ft 380 kts 259°
2026-04-21 18:17 34.56404 134.88630 36098 ft 380 kts 259°
2026-04-21 18:17 34.55256 134.82357 36098 ft 381 kts 259°
2026-04-21 18:18 34.54100 134.76084 36100 ft 381 kts 259°
2026-04-21 18:18 34.52946 134.69804 36105 ft 382 kts 259°
2026-04-21 18:19 34.51784 134.63522 36110 ft 382 kts 259°
2026-04-21 18:19 34.50614 134.57234 36104 ft 382 kts 258°
2026-04-21 18:20 34.49443 134.50941 36106 ft 383 kts 259°
2026-04-21 18:20 34.48274 134.44644 36104 ft 383 kts 259°
2026-04-21 18:21 34.47098 134.38339 36101 ft 384 kts 258°
2026-04-21 18:21 34.45912 134.32033 36107 ft 384 kts 258°
2026-04-21 18:22 34.44721 134.25724 36104 ft 384 kts 258°
2026-04-21 18:22 34.43584 134.19395 36099 ft 384 kts 263°
2026-04-21 18:23 34.43618 134.12948 36097 ft 384 kts 272°
2026-04-21 18:23 34.43955 134.06491 36101 ft 384 kts 272°
2026-04-21 18:24 34.44282 134.00027 36105 ft 385 kts 272°
2026-04-21 18:24 34.44591 133.93599 36110 ft 385 kts 272°
2026-04-21 18:25 34.44895 133.87130 36110 ft 385 kts 272°
2026-04-21 18:25 34.45209 133.80663 36116 ft 385 kts 272°
2026-04-21 18:26 34.45516 133.74192 36114 ft 385 kts 272°
2026-04-21 18:26 34.45821 133.67678 36120 ft 385 kts 272°
2026-04-21 18:27 34.46114 133.61208 36120 ft 385 kts 272°
2026-04-21 18:27 34.46415 133.54738 36116 ft 385 kts 272°
2026-04-21 18:28 34.46711 133.48264 36114 ft 385 kts 272°
2026-04-21 18:28 34.46998 133.41840 36117 ft 384 kts 271°
2026-04-21 18:29 34.46246 133.35460 36108 ft 386 kts 253°
2026-04-21 18:29 34.44335 133.29374 36098 ft 387 kts 252°
2026-04-21 18:30 34.42427 133.23279 36093 ft 387 kts 252°
2026-04-21 18:30 34.40512 133.17176 36086 ft 388 kts 252°
2026-04-21 18:31 34.38584 133.11074 36080 ft 388 kts 251°
2026-04-21 18:31 34.36638 133.04973 36080 ft 389 kts 251°
2026-04-21 18:32 34.34703 132.98908 36076 ft 389 kts 252°
2026-04-21 18:32 34.32750 132.92803 36076 ft 389 kts 251°
2026-04-21 18:33 34.31906 132.90180 36068 ft 390 kts 251°
2026-04-21 18:33 34.29946 132.84065 36033 ft 391 kts 252°
2026-04-21 18:33 34.28982 132.81004 35590 ft 390 kts 252°
2026-04-21 18:34 34.28020 132.77936 34885 ft 390 kts 251°
2026-04-21 18:34 34.27062 132.74872 34169 ft 390 kts 251°
2026-04-21 18:34 34.26097 132.71791 33312 ft 393 kts 251°
2026-04-21 18:34 34.25122 132.68698 32517 ft 393 kts 251°
2026-04-21 18:35 34.24475 132.66655 31980 ft 394 kts 250°
2026-04-21 18:35 34.23156 132.62511 30845 ft 396 kts 250°
2026-04-21 18:35 34.22163 132.59395 29931 ft 399 kts 250°
2026-04-21 18:35 34.21161 132.56257 28907 ft 401 kts 250°
2026-04-21 18:36 34.20154 132.53096 27808 ft 405 kts 251°
2026-04-21 18:36 34.19141 132.49906 26742 ft 408 kts 251°
2026-04-21 18:36 34.18127 132.46697 25787 ft 409 kts 251°
2026-04-21 18:36 34.17117 132.43496 25034 ft 406 kts 251°
2026-04-21 18:37 34.16113 132.40318 24294 ft 404 kts 251°
2026-04-21 18:37 34.15114 132.37163 23538 ft 402 kts 251°
2026-04-21 18:37 34.14117 132.34026 22767 ft 399 kts 251°
2026-04-21 18:37 34.13137 132.30952 22099 ft 396 kts 251°
2026-04-21 18:38 34.12150 132.27861 21446 ft 393 kts 251°
2026-04-21 18:38 34.11487 132.25788 20999 ft 391 kts 251°
2026-04-21 18:38 34.10510 132.22742 20374 ft 387 kts 251°
2026-04-21 18:38 34.09541 132.19723 19758 ft 384 kts 251°
2026-04-21 18:39 34.08582 132.16728 19157 ft 382 kts 251°
2026-04-21 18:39 34.07741 132.13714 18585 ft 377 kts 257°
2026-04-21 18:39 34.07143 132.10642 17973 ft 375 kts 258°
2026-04-21 18:39 34.06551 132.07588 17442 ft 372 kts 258°
2026-04-21 18:40 34.05966 132.04573 16925 ft 367 kts 257°
2026-04-21 18:40 34.05384 132.01592 16439 ft 363 kts 257°
2026-04-21 18:40 34.04807 131.98646 15952 ft 359 kts 257°
2026-04-21 18:40 34.04234 131.95727 15467 ft 356 kts 257°
2026-04-21 18:41 34.03667 131.92839 14975 ft 353 kts 256°
2026-04-21 18:41 34.03101 131.89964 14474 ft 351 kts 256°
2026-04-21 18:41 34.02542 131.87106 13964 ft 349 kts 256°
2026-04-21 18:41 34.01984 131.84263 13395 ft 348 kts 256°
2026-04-21 18:42 34.01427 131.81434 12852 ft 345 kts 256°
2026-04-21 18:42 34.00873 131.78632 12304 ft 342 kts 256°
2026-04-21 18:42 34.00322 131.75851 11717 ft 341 kts 256°
2026-04-21 18:42 33.99774 131.73081 11180 ft 339 kts 256°
2026-04-21 18:43 33.99240 131.70373 11019 ft 325 kts 256°
2026-04-21 18:43 33.98728 131.67776 10893 ft 311 kts 256°
2026-04-21 18:43 33.98234 131.65292 10770 ft 299 kts 256°
2026-04-21 18:43 33.97758 131.62903 10647 ft 287 kts 256°
2026-04-21 18:44 33.97298 131.60601 10451 ft 280 kts 256°
2026-04-21 18:44 33.96855 131.58371 10235 ft 276 kts 256°
2026-04-21 18:44 33.96406 131.56127 10010 ft 275 kts 256°
2026-04-21 18:44 33.95957 131.53893 9884 ft 275 kts 256°
2026-04-21 18:45 33.95507 131.51653 9752 ft 275 kts 256°
2026-04-21 18:45 33.95060 131.49421 9618 ft 274 kts 256°
2026-04-21 18:45 33.94609 131.47184 9368 ft 275 kts 256°
2026-04-21 18:45 33.94157 131.44955 8974 ft 273 kts 256°
2026-04-21 18:46 33.93708 131.42736 8579 ft 272 kts 256°
2026-04-21 18:46 33.93265 131.40533 8207 ft 270 kts 256°
2026-04-21 18:46 33.92825 131.38345 7827 ft 268 kts 256°
2026-04-21 18:46 33.92389 131.36168 7442 ft 266 kts 256°
2026-04-21 18:47 33.91956 131.34004 7066 ft 265 kts 256°
2026-04-21 18:47 33.91525 131.31854 6697 ft 264 kts 256°
2026-04-21 18:47 33.91094 131.29717 6308 ft 262 kts 256°
2026-04-21 18:47 33.90664 131.27594 5931 ft 260 kts 256°
2026-04-21 18:48 33.90237 131.25493 5553 ft 257 kts 256°
2026-04-21 18:48 33.89813 131.23413 5190 ft 254 kts 255°
2026-04-21 18:48 33.89131 131.21476 4832 ft 251 kts 236°
2026-04-21 18:48 33.87928 131.19984 4465 ft 248 kts 219°
2026-04-21 18:49 33.86587 131.18689 4106 ft 246 kts 219°
2026-04-21 18:49 33.85265 131.17403 3762 ft 243 kts 219°
2026-04-21 18:49 33.84402 131.16561 3494 ft 238 kts 219°
2026-04-21 18:49 33.82744 131.14940 3056 ft 222 kts 218°
2026-04-21 18:50 33.81575 131.13797 2745 ft 211 kts 218°
2026-04-21 18:50 33.80462 131.12713 2444 ft 201 kts 217°
2026-04-21 18:50 33.79389 131.11667 2162 ft 197 kts 218°
2026-04-21 18:50 33.78468 131.10461 1884 ft 198 kts 239°
2026-04-21 18:51 33.78011 131.08909 1605 ft 199 kts 262°
2026-04-21 18:51 33.78084 131.07303 1358 ft 188 kts 284°
2026-04-21 18:51 33.78620 131.05943 1109 ft 171 kts 306°
2026-04-21 18:51 33.79419 131.04983 884 ft 156 kts 324°
2026-04-21 18:52 33.80358 131.04419 695 ft 148 kts 345°
2026-04-21 18:52 33.81357 131.04188 486 ft 145 kts 350°
2026-04-21 18:52 33.82358 131.03975 297 ft 146 kts 349°
2026-04-21 18:52 33.83361 131.03753 106 ft 147 kts 350°
2026-04-21 18:53 33.84308 131.03557 29 ft 117 kts 351°
2026-04-21 18:53 33.84933 131.03432 32 ft 66 kts 351°
2026-04-21 18:53 33.85188 131.03378 30 ft 8 kts 332°
2026-04-21 18:53 33.85225 131.03307 30 ft 12 kts 270°
2026-04-21 18:54 33.85213 131.03214 30 ft 10 kts 270°
2026-04-21 18:54 33.85175 131.03183 30 ft 10 kts 171°
2026-04-21 18:54 33.85087 131.03197 30 ft 13 kts 172°
2026-04-21 18:54 33.85001 131.03215 30 ft 13 kts 170°
2026-04-21 18:55 33.84945 131.03226 30 ft 12 kts 170°
2026-04-21 18:55 33.84831 131.03250 30 ft 16 kts 170°
2026-04-21 18:55 33.84704 131.03275 30 ft 19 kts 170°
2026-04-21 18:55 33.84569 131.03303 30 ft 20 kts 170°
2026-04-21 18:56 33.84423 131.03333 30 ft 22 kts 170°
2026-04-21 18:56 33.84264 131.03366 30 ft 24 kts 171°
2026-04-21 18:56 33.84112 131.03395 30 ft 14 kts 170°
2026-04-21 18:56 33.84024 131.03413 30 ft 12 kts 170°
2026-04-21 18:57 33.83993 131.03364 30 ft 7 kts 255°
2026-04-21 18:57 33.83981 131.03311 30 ft 6 kts 255°
2026-04-21 18:57 33.83971 131.03254 30 ft 0 kts 260°
2026-04-21 20:47 33.83971 131.03257 30 ft 2 kts 260°
2026-04-21 20:47 33.83975 131.03288 30 ft 4 kts 261°
2026-04-21 20:47 33.83979 131.03320 30 ft 4 kts 263°
2026-04-21 20:48 33.83982 131.03352 30 ft 4 kts 265°
2026-04-21 20:48 33.83983 131.03385 30 ft 4 kts 272°
2026-04-21 20:48 33.83979 131.03415 30 ft 4 kts 307°
2026-04-21 20:48 33.83971 131.03425 30 ft 0 kts 351°